Flag for U.S.A. Weather past 2 weeks in Elizabeth, New Jersey, U.S.A.

Now
30 °F

More clouds than sun.


Feels Like: 24 °F
Forecast: 19 / 35 °F
Wind: 6 mph from North

Location: Newark International Airport

Current Time: Mar 3, 2015 at 12:30:49 PM

Latest Report: Mar 3, 2015 at 11:51 AM


Visibility: 10 mi

Pressure: 30.39 "Hg

Humidity: 51%

Dew point: 14 °F

Location of ElizabethLocation

Historic Weather in Elizabeth — Graph

°F

Elizabeth temperature yesterday

Maximum temperature yesterday: 38 °F (at 1:51 PM)
Minimum temperature yesterday: 27 °F (at 12:51 AM)
Average temperature yesterday: 33 °F

Past Weeks' High & Low Weather Summary

 TemperatureHumidityPressure
High42 °F (Feb 22, 3:51 PM)96% (Feb 21, 6:51 PM)30.83 "Hg (Feb 21, 6:51 PM)
Low1 °F (Feb 20, 5:51 AM)27% (Feb 28, 3:51 PM)29.73 "Hg (Feb 18, 11:51 PM)
Average23 °F56%30.19 "Hg
* Reported Feb 16 10:51 AM — Mar 3 10:51 AM, Elizabeth, Weather by CustomWeather, © 2015

Note: Actual official high and low records may vary slightly from our data, if they occured in-between our weather recording intervals... More about our weather records

Advertising

Elizabeth weather history for previous 24 hours

 ConditionsComfort  
Time TempWeatherWind HumidityBarometerVisibility
10:51 AM
Tue, Mar 3
29 °FMore clouds than sun.7 mph47%30.41 "Hg10 mi
9:51 AM27 °FMore clouds than sun.No wind49%30.43 "Hg10 mi
8:51 AM25 °FBroken clouds.3 mph55%30.46 "Hg10 mi
7:51 AM24 °FPartly sunny.3 mph52%30.45 "Hg10 mi
6:51 AM23 °FBroken clouds.7 mph55%30.44 "Hg10 mi
5:51 AM22 °FPassing clouds.3 mph55%30.42 "Hg10 mi
4:51 AM22 °FPassing clouds.5 mph57%30.42 "Hg10 mi
3:51 AM22 °FPassing clouds.6 mph60%30.40 "Hg10 mi
2:51 AM23 °FPassing clouds.3 mph57%30.40 "Hg10 mi
1:51 AM25 °FPassing clouds.8 mph53%30.40 "Hg10 mi
12:51 AM25 °FPassing clouds.6 mph53%30.39 "Hg10 mi
11:51 PM
Mon, Mar 2
27 °FPassing clouds.14 mph49%30.38 "Hg10 mi
10:51 PM28 °FPassing clouds.13 mph49%30.37 "Hg10 mi
9:51 PM30 °FPassing clouds.13 mph41%30.34 "Hg10 mi
8:51 PM31 °FPassing clouds.10 mph41%30.31 "Hg10 mi
7:51 PM32 °FPassing clouds.12 mph41%30.28 "Hg10 mi
6:51 PM34 °FPassing clouds.13 mph38%30.26 "Hg10 mi
5:51 PM35 °FPassing clouds.15 mph38%30.21 "Hg10 mi
4:51 PM37 °FPassing clouds.21 mph37%30.18 "Hg10 mi
3:51 PM38 °FPassing clouds.18 mph37%30.16 "Hg10 mi
2:51 PM38 °FPassing clouds.17 mph37%30.16 "Hg10 mi
1:51 PM38 °FPassing clouds.18 mph39%30.14 "Hg10 mi
12:51 PM37 °FScattered clouds.18 mph42%30.15 "Hg10 mi
Weather by CustomWeather, © 2015

See weather overviewHow to use our weather pages